Regional Weather Roundup
Issued by NWS

Home | Current Version | Previous Version | Graphics & Text | Print | Product List | Glossary On
Versions: 1 2 3 4 5 6 7 8 9 10 11 12 13 14 15 16 17 18 19 20 21 22 23 24 25 26 27 28 29 30 31 32 33 34 35 36 37 38 39 40 41 42 43 44 45 46 47 48 49 50
000
ASUS43 KLOT 271800
RWRIL

ILLINOIS REGIONAL WEATHER ROUNDUP
NATIONAL WEATHER SERVICE CHICAGO/ROMEOVILLE IL
1200 PM CST TUE JAN 27 2015

NOTE: "FAIR" INDICATES FEW OR NO CLOUDS BELOW 12,000 FEET WITH NO
SIGNIFICANT WEATHER AND/OR OBSTRUCTIONS TO VISIBILITY.

* THESE STATIONS ARE NOT UNDER NWS QUALITY CONTROL. THEY ALSO MAY NOT
  REPORT WEATHER SUCH AS PRECIPITATION OR FOG.

ILZ001-002-007-009-015-016-024-271900-
NORTHWEST ILLINOIS

CITY           SKY/WX    TMP DP  RH WIND       PRES   REMARKS
MOLINE         CLOUDY    30  22  72 N6        30.20R WCI  24
6HR MIN TEMP:  29; 6HR MAX TEMP:  34;

STERLING*      CLOUDY    30  25  80 N5        30.19S WCI  25
$$

ILZ003-004-008-010-011-017-018-271900-
NORTH CENTRAL ILLINOIS

CITY           SKY/WX    TMP DP  RH WIND       PRES   REMARKS
ROCKFORD       CLOUDY    30  24  78 E5        30.19S WCI  25
6HR MIN TEMP:  26; 6HR MAX TEMP:  30;

$$

ILZ005-006-012>014-019>023-271900-
NORTHEAST ILLINOIS

CITY           SKY/WX    TMP DP  RH WIND       PRES   REMARKS
CHICAGO-OHARE  PTSUNNY   30  19  63 NE8       30.16S WCI  22
6HR MIN TEMP:  27; 6HR MAX TEMP:  30; 6HR PCP: TRACE;

CHICAGO-MIDWAY PTSUNNY   31  19  61 NE9       30.17R WCI  23
6HR MIN TEMP:  29; 6HR MAX TEMP:  32;

AURORA         CLOUDY    31  23  72 NE8       30.17R WCI  23
6HR MIN TEMP:  27; 6HR MAX TEMP:  31; 6HR PCP: TRACE;

WAUKEGAN       MOSUNNY   28  17  63 NE8       30.17S WCI  20
6HR MIN TEMP:  27; 6HR MAX TEMP:  29;

DUPAGE AIRPORT CLOUDY    29  21  72 NE9       30.16R WCI  20
6HR MIN TEMP:  26; 6HR MAX TEMP:  30; 6HR PCP: TRACE;

WHEELING       PTSUNNY   29  18  63 N8        30.19R WCI  21
6HR MIN TEMP:  27; 6HR MAX TEMP:  30;

NORTHERLY ISL    N/A     30  17  58 NE6         N/A  WCI  24
$$

LMZ740>746-271900-
SOUTHERN LAKE MICHIGAN

STATION/POSITION SKY/WX   TEMP    WIND        PRES    VSBY  WAVE
                          AIR SEA DIR/SP/G                  HT/PER
                          (F)     (DEG/KT/KT) (MB)    (MI)  (FT/S)
WAUKEGAN HARBOR            28      50/  8/ 12   N/A
HARRISON CRIB              27      40/ 10/ 11   N/A
BURNHAM HARBOR             30      10/  7/ 12   N/A
CALUMET HARBOR             29      50/  8/ 10   N/A
MICHIGAN CITY              26     360/  7/  9   N/A
$$

ILZ025>027-034>036-040-047-049-050-058-095>099-271900-
WEST-CENTRAL ILLINOIS

CITY           SKY/WX    TMP DP  RH WIND       PRES   REMARKS
QUINCY         PTSUNNY   40  31  70 NE12      30.17S
$$

ILZ028>032-037-038-041>044-048-051>054-059>061-271900-
CENTRAL ILLINOIS

CITY           SKY/WX    TMP DP  RH WIND       PRES   REMARKS
DECATUR        CLOUDY    32  29  88 NE10      30.15S WCI  24
PEORIA         CLOUDY    32  24  72 VRB5      30.18S WCI  27
6HR MIN TEMP:  31; 6HR MAX TEMP:  32;

SPRINGFIELD    CLOUDY    34  28  79 NE10      30.17S WCI  26
6HR MIN TEMP:  31; 6HR MAX TEMP:  34;

TAYLORVILLE    NOT AVBL
$$

ILZ033-039-045-046-055>057-062-063-271900-
EAST-CENTRAL ILLINOIS

CITY           SKY/WX    TMP DP  RH WIND       PRES   REMARKS
CHAMPAIGN      CLOUDY    31  26  82 N8        30.14S WCI  23
MATTOON        CLOUDY    31  27  85 N10       30.13R WCI  22
$$

ILZ079-100>102-271900-
SOUTHWEST ILLINOIS

CITY           SKY/WX    TMP DP  RH WIND       PRES   REMARKS
ALTON          CLOUDY    39  32  75 N10       30.16S WCI  32
BELLEVILLE     CLOUDY    42  32  67 N10       30.15F
CAHOKIA*       CLOUDY    43  33  68 N8        30.16F
$$

ILZ064>066-069>071-074>076-080>082-084>086-088>090-092>094-271900-
SOUTH-CENTRAL ILLINOIS

CITY           SKY/WX    TMP DP  RH WIND       PRES   REMARKS
CARBONDALE     CLOUDY    42  29  59 N14       30.15S
6HR MIN TEMP:  31; 6HR MAX TEMP:  43;

MARION         CLOUDY    41  30  65 N12       30.15S
MT. VERNON     CLOUDY    39  28  65 N5        30.14S
$$

ILZ067-068-072-073-078-083-087-091-271900-
SOUTHEAST ILLINOIS

CITY           SKY/WX    TMP DP  RH WIND       PRES   REMARKS
LAWRENCEVILLE  CLOUDY    33  30  88 N8        30.14S WCI  26
$$

ABBREVIATIONS USED IN REMARKS
   TC - TEMPERATURE IN CELSIUS
  WCI - WIND CHILL INDEX
   HX - HEAT INDEX
  VSB - VISIBILITY
$$




USA.gov is the U.S. government's official web portal to all federal, state and local government web resources and services.